Погода в Аникине

Россия / Омская область     56°31′49″N   73°54′09″E
темп.,
°C
ветер,
м/с
пор.,
м/с
влажн.,
%
обл.,
%
осадки,
мм/ч
давл.,
гПа
погр.,
м
26 июля, пн
пн2600:00+15сз71197100 6.2 1004427
03:00+13сз71395100 0.1 1006569
06:00+13сз614921 0.1 1007633
09:00+15сз7108282 0.0 1007665
12:00+19ссз796070 0.1 10081463
15:00+21сз79403 0.0 10092080
18:00+20сз584335 0.0 10102320
21:00+16сз61055100 0.0 1011502
27 июля, вт
вт2700:00+13зсз4106617 0.0 1012383
03:00+9зсз37865 0.0 1012131
06:00+10з357699 0.0 1012141
09:00+14з3667100 0.0 1012277
12:00+17з3454100 0.0 10121025
15:00+16зсз3560100 0.1 1011362
18:00+18зюз355194 0.1 10101028
21:00+15ююз345899 0.0 101082
28 июля, ср
ср2800:00+14ююз385892 0.0 1010170
03:00+13ююз385990 0.0 1009181
06:00+11зюз3579100 0.0 1008106
09:00+16юз4568100 0.1 1008494
12:00+18юз466056 0.1 10071239
15:00+16з6875100 0.8 1007557
18:00+17юз687678 1.7 10051156
21:00+13зюз499299 1.2 1006249
29 июля, чт
чт2900:00+12з3493100 1.2 1007104
03:00+10зсз369273 0.1 1007103
06:00+8зсз36926 0.1 1008106
09:00+13зсз457681 0.0 1009451
12:00+15з5555100 0.0 10091196
15:00+17з5649100 0.1 10092011
18:00+15зсз355497 0.1 1010525
21:00+13зсз1161100 0.0 101011
30 июля, пт
пт3000:00+12ю2257100 0.0 101023
03:00+12юз375594 0.0 1010182
06:00+10зюз3470100 0.0 101092
09:00+15ююз4659100 0.0 1010496
12:00+15ю6976100 0.1 1010690
15:00+18юз786889 0.3 10081284
18:00+19зюз4982100 1.9 1007843
21:00+15сз3393100 1.7 100855